Showing default

YAOGAN-30 W, 46809

Orbit data source: Space-Track

YAOGAN-30 W, 46809 is a payload satellite owned by PLA SSF (CN) in LEO that was launched on Mon, 26 Oct 2020 UTC via a CHANG ZHENG 2C launch vehicle from the Xichang Space Center, China (XSC). Payload-class satellites include a variety of spacecraft equipped with specific instruments for various scientific and technological missions. These include communications satellites like Starlink; space stations such as the ISS; scientific satellites like the Hubble; Earth observation satellites from companies like Planet Labs, Umbra, and HawkEye 360; GPS; miniature CubeSats for education and research; and military/defense satellites.

Loading next visibility...
Identifier
46809, 2020-076C
Orbit
LEO
Last TLE update
9 hours ago
Origin
Manufacturer
SECM
Mission
Operational Defense Sigint
Bus & Motor
Unknown
Mass
~500 kg wet, ~500 kg dry
Launch date (UTC)
2020-10-26 (5 years ago)
Launch vehicle
CHANG ZHENG 2C
Launch site
Xichang Space Center, China (XSC)
Object type
Payload
Rocket body
Debris
Shape & HBR
Box + 2 Pan, Unknown HBR
Radar Cross Section
0.446 m², Large (>1 m²)

Expand to show TLE details & history

TLE from 9 hours ago
0 YAOGAN-30 W
1 46809U 20076C   25184.11156451  .00002193  00000-0  17466-3 0  9998
2 46809  34.9967  54.4493 0007288 258.0239 101.9652 15.00083055255733
Epoch: 2025-07-03T02:40Z
TLE epoch observation values (Epoch: 2025-07-03T02:40:39.173Z)
Latitude
Longitude
92.90308°
Altitude
566.61 km
Speed
7.579 km/s
True Right ascension
03h 37m 47s
True Declination
0° 00' 00"
Sunlit
Object was in daylight at epoch
Visualization orbit readout
Latitude
-34.96508°
Longitude
7.17653°
Altitude
570.866 km
Speed
7.579 km/s
Apparent Right ascension
17h 59m 18s
Apparent Declination
-72° 32' 08"
Sunlit
Object is in full shadow
Visualization observer readout
Local Sidereal Time
23:39:44
Azimuth
201.788° SSW
Elevation
-36.332°
Doppler factor
1
Orbital elements
Apogee altitude
574.922 km
Perigee altitude
564.794 km
Semi-major axis
6,947.995 km
Eccentricity
0.00073
Inclination
34.9967°
RAAN
54.4493°
Arg. of periapsis
258.0239°
True anomaly
Unknown
Mean anomaly
101.9652°
Eccentric anomaly
Unknown
Mean motion
3.74761 °/min
Orbital period
96.06 mins
BSTAR
0.00017466
Loading maneuver chart data...
Loading SW <> Apogee altitude chart data...
Loading historical data...
Loading historical data...
Loading historical data...
Loading historical data...
Loading historical data...
Loading historical data...
Loading historical data...
Other satellites on launch #76 in the year 2020 (2020-10-26 UTC)

YAOGAN-30 W Visibility forecast

Observer location: undefined°, undefined°

Span
Click to sort rows by Start time (UTC) header in descending order
Start Az.
Max El. time (UTC)
Max El. Az.
Max El.
End time (UTC)
End Az.
5 mins2025-07-03 18:52:10.421Z201.502° SSW2025-07-03 18:55:10.421Z155.781° SSE18.139°2025-07-03 18:57:10.421Z122.408° SE
6 mins2025-07-03 20:33:10.421Z232.588° WSW2025-07-03 20:36:10.421Z166.028° S31.741°2025-07-03 20:39:10.421Z108.215° ESE
6 mins2025-07-03 22:14:10.421Z249.786° W2025-07-03 22:17:10.421Z184.933° SSW32.45°2025-07-03 22:20:10.421Z123.637° SE
5 mins2025-07-03 23:56:10.421Z235.385° WSW2025-07-03 23:58:10.421Z199.403° SSW19.372°2025-07-04 00:01:10.421Z154.068° SSE
|